EN

Hourly Weather Kysla Dubyna

Today, 6 August, Friday

Time Temperature Precipitation Wind Pressure Humidity
00:00 +19°C° 0 mm 3 mps 742 mmHg 83%
01:00 +18°C° 0 mm 3 mps 742 mmHg 82%
02:00 +18°C° 0 mm 4 mps 741 mmHg 80%
03:00 +18°C° 0 mm 4 mps 741 mmHg 78%
04:00 +18°C° 0 mm 4 mps 741 mmHg 76%
05:00 +18°C° 0 mm 4 mps 741 mmHg 74%
06:00 +20°C° 0 mm 4 mps 741 mmHg 65%
07:00 +23°C° 0 mm 4 mps 741 mmHg 55%
08:00 +26°C° 0 mm 5 mps 741 mmHg 46%
09:00 +28°C° 0 mm 5 mps 740 mmHg 41%
10:00 +30°C° 0 mm 5 mps 740 mmHg 36%
11:00 +34°C° 0 mm 5 mps 740 mmHg 30%
12:00 +34°C° 0 mm 5 mps 739 mmHg 28%
13:00 +35°C° 0 mm 5 mps 739 mmHg 26%
14:00 +36°C° 0 mm 5 mps 738 mmHg 23%
15:00 +36°C° 0 mm 4 mps 738 mmHg 24%
16:00 +36°C° 0 mm 4 mps 738 mmHg 25%
17:00 +35°C° 0 mm 4 mps 738 mmHg 26%
18:00 +33°C° 0 mm 4 mps 738 mmHg 33%
19:00 +29°C° 0 mm 4 mps 737 mmHg 40%
20:00 +27°C° 0 mm 4 mps 737 mmHg 48%
21:00 +25°C° 0.4 mm 4 mps 738 mmHg 61%
22:00 +22°C° 0.4 mm 4 mps 739 mmHg 75%
23:00 +20°C° 0.4 mm 4 mps 739 mmHg 88%

Tomorrow, 7 August, Saturday

Time Temperature Precipitation Wind Pressure Humidity
00:00 +19°C° 0.7 mm 4 mps 739 mmHg 90%
01:00 +19°C° 0.7 mm 3 mps 739 mmHg 93%
02:00 +18°C° 0.7 mm 2 mps 739 mmHg 95%
03:00 +19°C° 0.3 mm 2 mps 739 mmHg 94%
04:00 +19°C° 0.3 mm 2 mps 739 mmHg 94%
05:00 +19°C° 0.3 mm 2 mps 739 mmHg 93%
06:00 +20°C° 0 mm 2 mps 739 mmHg 87%
07:00 +21°C° 0 mm 2 mps 740 mmHg 82%
08:00 +23°C° 0 mm 2 mps 740 mmHg 76%
09:00 +24°C° 0.1 mm 2 mps 740 mmHg 72%
10:00 +25°C° 0.1 mm 3 mps 740 mmHg 68%
11:00 +26°C° 0.1 mm 3 mps 740 mmHg 64%
12:00 +27°C° 0 mm 3 mps 740 mmHg 59%
13:00 +28°C° 0 mm 3 mps 741 mmHg 54%
14:00 +28°C° 0 mm 3 mps 741 mmHg 49%
15:00 +28°C° 0 mm 3 mps 741 mmHg 45%
16:00 +28°C° 0 mm 3 mps 741 mmHg 41%
17:00 +28°C° 0 mm 3 mps 741 mmHg 38%
18:00 +26°C° 0 mm 4 mps 742 mmHg 41%
19:00 +23°C° 0 mm 4 mps 742 mmHg 45%
20:00 +21°C° 0 mm 4 mps 742 mmHg 49%
21:00 +20°C° 0 mm 3 mps 743 mmHg 51%
22:00 +19°C° 0 mm 3 mps 743 mmHg 54%
23:00 +19°C° 0 mm 3 mps 743 mmHg 57%

Day after tomorrow, 8 August, Sunday

Time Temperature Precipitation Wind Pressure Humidity
00:00 +18°C° 0 mm 2 mps 744 mmHg 59%
01:00 +18°C° 0 mm 2 mps 744 mmHg 61%
02:00 +18°C° 0 mm 2 mps 744 mmHg 62%
03:00 +17°C° 0 mm 2 mps 744 mmHg 65%
04:00 +17°C° 0 mm 2 mps 745 mmHg 68%
05:00 +16°C° 0 mm 2 mps 745 mmHg 72%
06:00 +18°C° 0 mm 2 mps 745 mmHg 64%
07:00 +21°C° 0 mm 2 mps 745 mmHg 56%
08:00 +24°C° 0 mm 2 mps 746 mmHg 49%
09:00 +25°C° 0 mm 3 mps 746 mmHg 45%
10:00 +27°C° 0 mm 3 mps 746 mmHg 40%
11:00 +28°C° 0 mm 3 mps 746 mmHg 36%
12:00 +29°C° 0 mm 3 mps 746 mmHg 34%
13:00 +29°C° 0 mm 3 mps 746 mmHg 32%
14:00 +30°C° 0 mm 3 mps 746 mmHg 30%
15:00 +30°C° 0 mm 3 mps 746 mmHg 31%
16:00 +30°C° 0 mm 3 mps 746 mmHg 32%
17:00 +29°C° 0 mm 2 mps 746 mmHg 33%
18:00 +27°C° 0 mm 3 mps 746 mmHg 41%
19:00 +25°C° 0 mm 3 mps 746 mmHg 48%
20:00 +21°C° 0 mm 3 mps 746 mmHg 56%
21:00 +20°C° 0 mm 3 mps 747 mmHg 59%
22:00 +20°C° 0 mm 2 mps 747 mmHg 62%
23:00 +19°C° 0 mm 2 mps 747 mmHg 65%

9 August, Monday

Time Temperature Precipitation Wind Pressure Humidity
00:00 +19°C° 0 mm 2 mps 747 mmHg 67%
01:00 +18°C° 0 mm 2 mps 747 mmHg 69%
02:00 +19°C° 0 mm 1 mps 747 mmHg 72%
03:00 +18°C° 0 mm 2 mps 747 mmHg 73%
04:00 +18°C° 0 mm 2 mps 747 mmHg 74%
05:00 +17°C° 0 mm 2 mps 747 mmHg 75%
06:00 +20°C° 0 mm 2 mps 747 mmHg 68%
07:00 +23°C° 0 mm 2 mps 747 mmHg 60%
08:00 +26°C° 0 mm 3 mps 747 mmHg 52%
09:00 +27°C° 0 mm 3 mps 747 mmHg 47%
10:00 +29°C° 0 mm 3 mps 747 mmHg 42%
11:00 +30°C° 0 mm 3 mps 747 mmHg 37%
12:00 +31°C° 0 mm 3 mps 747 mmHg 34%
13:00 +31°C° 0 mm 3 mps 747 mmHg 32%
14:00 +32°C° 0 mm 2 mps 747 mmHg 30%
15:00 +33°C° 0 mm 3 mps 746 mmHg 31%
16:00 +31°C° 0 mm 3 mps 746 mmHg 33%
17:00 +31°C° 0 mm 3 mps 746 mmHg 34%
18:00 +29°C° 0 mm 3 mps 746 mmHg 40%
19:00 +27°C° 0 mm 3 mps 746 mmHg 46%
20:00 +25°C° 0 mm 3 mps 747 mmHg 53%
21:00 +24°C° 0 mm 3 mps 746 mmHg 56%
22:00 +21°C° 0 mm 2 mps 746 mmHg 59%
23:00 +20°C° 0 mm 2 mps 746 mmHg 62%

10 August, Tuesday

Time Temperature Precipitation Wind Pressure Humidity
00:00 +20°C° 0 mm 2 mps 746 mmHg 65%
01:00 +20°C° 0 mm 2 mps 746 mmHg 67%
02:00 +20°C° 0 mm 1 mps 747 mmHg 69%
03:00 +20°C° 0 mm 1 mps 746 mmHg 70%
04:00 +20°C° 0 mm 1 mps 746 mmHg 71%
05:00 +20°C° 0 mm 1 mps 746 mmHg 71%
06:00 +21°C° 0 mm 2 mps 746 mmHg 64%
07:00 +25°C° 0 mm 2 mps 746 mmHg 56%
08:00 +27°C° 0 mm 2 mps 746 mmHg 48%
09:00 +29°C° 0 mm 2 mps 746 mmHg 44%
10:00 +30°C° 0 mm 2 mps 746 mmHg 39%
11:00 +31°C° 0 mm 3 mps 746 mmHg 35%
12:00 +33°C° 0 mm 3 mps 745 mmHg 34%
13:00 +34°C° 0 mm 3 mps 745 mmHg 33%
14:00 +34°C° 0 mm 3 mps 745 mmHg 31%
15:00 +34°C° 0 mm 3 mps 745 mmHg 32%
16:00 +33°C° 0 mm 4 mps 744 mmHg 33%
17:00 +33°C° 0 mm 4 mps 744 mmHg 34%
18:00 +30°C° 0 mm 4 mps 744 mmHg 41%
19:00 +27°C° 0 mm 3 mps 744 mmHg 47%
20:00 +25°C° 0 mm 3 mps 744 mmHg 53%
21:00 +24°C° 0 mm 3 mps 744 mmHg 55%
22:00 +22°C° 0 mm 3 mps 744 mmHg 56%
23:00 +21°C° 0 mm 3 mps 744 mmHg 58%

11 August, Wednesday

Time Temperature Precipitation Wind Pressure Humidity
00:00 +21°C° 0 mm 2 mps 743 mmHg 61%
01:00 +20°C° 0 mm 2 mps 743 mmHg 63%
02:00 +19°C° 0 mm 2 mps 743 mmHg 66%
03:00 +19°C° 0 mm 2 mps 743 mmHg 67%
04:00 +19°C° 0 mm 2 mps 743 mmHg 69%
05:00 +18°C° 0 mm 2 mps 743 mmHg 71%
06:00 +21°C° 0 mm 3 mps 743 mmHg 63%
07:00 +24°C° 0 mm 3 mps 743 mmHg 56%
08:00 +26°C° 0 mm 3 mps 743 mmHg 49%
09:00 +28°C° 0 mm 3 mps 743 mmHg 44%
10:00 +30°C° 0 mm 3 mps 743 mmHg 39%
11:00 +31°C° 0 mm 3 mps 743 mmHg 34%
12:00 +33°C° 0 mm 3 mps 742 mmHg 32%
13:00 +34°C° 0 mm 3 mps 742 mmHg 31%
14:00 +35°C° 0 mm 3 mps 742 mmHg 29%
15:00 +34°C° 0 mm 3 mps 741 mmHg 31%
16:00 +34°C° 0 mm 4 mps 741 mmHg 33%
17:00 +33°C° 0 mm 4 mps 741 mmHg 36%
18:00 +28°C° 0.7 mm 5 mps 741 mmHg 54%
19:00 +23°C° 0.7 mm 6 mps 742 mmHg 72%
20:00 +19°C° 0.7 mm 6 mps 742 mmHg 91%
21:00 +19°C° 1.4 mm 5 mps 742 mmHg 93%
22:00 +19°C° 1.4 mm 4 mps 743 mmHg 95%
23:00 +18°C° 1.4 mm 3 mps 743 mmHg 96%
Show more